Regional Weather Roundup
Issued by NWS

Home | Current Version | Previous Version | Text Only | Print | Product List | Glossary On
Versions: 1 2 3 4 5 6 7 8 9 10 11 12 13 14 15 16 17 18 19 20 21 22 23 24 25 26 27 28 29 30 31 32 33 34 35 36 37 38 39 40 41 42 43 44 45 46 47 48 49 50
000
ASUS43 KFSD 010810
RWRSD

WEATHER ROUNDUP FOR SOUTH DAKOTA
NATIONAL WEATHER SERVICE SIOUX FALLS SD
300 AM CDT MON SEP 01 2014

NOTE: "FAIR" INDICATES FEW OR NO CLOUDS BELOW 12,000 FEET WITH NO
SIGNIFICANT WEATHER AND/OR OBSTRUCTIONS TO VISIBILITY.


SDZ001>005-009-010-012>017-010900-
NORTHWEST AND NORTH CENTRAL SOUTH DAKOTA

CITY           SKY/WX    TMP DP  RH WIND       PRES   REMARKS
BUFFALO          N/A     50  47  89 W9        29.81R
FAITH            N/A     50  47  89 W8        29.84F
MOBRIDGE       MOCLDY    57  54  89 N5        29.75S
$$

SDZ012>016-024>037-041>051-057-063-072>074-010900-
SOUTHWEST AND SOUTH CENTRAL SOUTH DAKOTA

CITY           SKY/WX    TMP DP  RH WIND       PRES   REMARKS
RAPID CTY ARPT PTCLDY    51  47  86 W7        29.90R
PIERRE         CLEAR     57  53  86 W6        29.78R
CUSTER         CLEAR     46  39  76 N5        30.00R
ELLSWORTH AFB  PTCLDY    51  47  84 W6        29.89R
PHILIP         CLEAR     53  50  89 W9        29.85R
PINE RIDGE     CLEAR     50  49  96 CALM      29.92R
WINNER         FAIR      59  57  93 W10       29.81R
$$

SDZ004>011-016>023-039-040-010900-
NORTHEAST SOUTH DAKOTA

CITY           SKY/WX    TMP DP  RH WIND       PRES   REMARKS
ABERDEEN       CLOUDY    60  58  92 W7        29.73R
WATERTOWN      CLOUDY    62  60  93 CALM      29.73R
SISSETON         N/A     62  60  93 NW6       29.69R
$$

SDZ017-020-022-023-036>040-048>070-010900-
SOUTHEAST SOUTH DAKOTA

CITY           SKY/WX    TMP DP  RH WIND       PRES   REMARKS
SIOUX FALLS    PTCLDY    63  60  90 NW7       29.71R
HURON          CLOUDY    61  60  97 W5        29.73R
CHAMBERLAIN    CLEAR     60  58  92 NW9       29.76S
MITCHELL       LGT RAIN  62  61  96 NW12      29.76R FOG
YANKTON        MOCLDY    63  61  94 NW7       29.73S
$$

ABBREVIATIONS USED IN REMARKS
   TC - TEMPERATURE IN CELSIUS
  WCI - WIND CHILL INDEX
   HX - HEAT INDEX
  VSB - VISIBILITY



USA.gov is the U.S. government's official web portal to all federal, state and local government web resources and services.